Regional Weather Roundup
Issued by NWS

Home | Current Version | Previous Version | Text Only | Print | Product List | Glossary On
Versions: 1 2 3 4 5 6 7 8 9 10 11 12 13 14 15 16 17 18 19 20 21 22 23 24 25 26 27 28 29 30 31 32 33 34 35 36 37 38 39 40 41 42 43 44 45 46 47 48 49 50
000
ASUS45 KPSR 271010
RWRAZ

ARIZONA REGIONAL HOURLY WEATHER ROUNDUP
NATIONAL WEATHER SERVICE PHOENIX AZ
300 AM MST WED AUG 27 2014

NOTE: FAIR INDICATES FEW OR NO CLOUDS BELOW 12,000 FEET WITH NO
SIGNIFICANT WEATHER AND/OR OBSTRUCTIONS TO VISIBILITY.

AZZ001>003-036-271100-
NORTHWEST ARIZONA

CITY           SKY/WX    TMP DP  RH WIND       PRES   REMARKS
BULLHEAD CITY  FAIR      82  63  51 E5        29.92R
KINGMAN        FAIR      67  57  70 SE8       30.09S
$$

AZZ004>008-015-016-018-271100-
NORTH CENTRAL ARIZONA

CITY           SKY/WX    TMP DP  RH WIND       PRES   REMARKS
GRAND CANYON     N/A    N/A N/A N/A MISG        N/A
WILLIAMS       MOCLDY    52  50  93 SE6       30.37S
PRESCOTT       CLOUDY    61  56  83 S13       30.25R THUNDER
FLAGSTAFF      CLOUDY    49  47  93 CALM      30.34R
PAYSON         MOCLDY    59  52  77 CALM      30.25S
PAGE           FAIR      59  50  72 SE5       30.22F
$$

AZZ009>014-017-271100-
NORTHEAST ARIZONA

CITY           SKY/WX    TMP DP  RH WIND       PRES   REMARKS
WINSLOW        FAIR      58  56  93 SE5       30.24R
SAINT JOHNS    FAIR      54  53  97 CALM      30.26S
SHOW LOW       FAIR      54  48  82 S10       30.32S
$$

AZZ023-271100-
GREATER PHOENIX AREA

CITY           SKY/WX    TMP DP  RH WIND       PRES   REMARKS
PHOENIX        FAIR      84  64  50 SE5       29.94F
BUCKEYE          N/A     82  66  57 E8        29.95S
LUKE AFB       NOT AVBL
DEER VALLEY    FAIR      82  59  45 NE6       29.97S
SCOTTSDALE     FAIR      83  60  45 CALM      29.99S
MESA-GATEWAY   FAIR      79  63  57 E6        29.99F
$$

AZZ027-028-271100-
SOUTHWEST MARICOPA COUNTY AND PINAL COUNTY

CITY           SKY/WX    TMP DP  RH WIND       PRES   REMARKS
CASA GRANDE    FAIR      79  64  61 CALM      29.99S
$$

AZZ503-504-507>509-271100-
SOUTHEAST ARIZONA

CITY           SKY/WX    TMP DP  RH WIND       PRES   REMARKS
TUCSON         FAIR      73  66  78 CALM      30.08S
DAVIS-MONTHAN  FAIR      74  65  73 SE3       30.06S
NOGALES        FAIR      68  63  84 CALM      30.15S
SIERRA VISTA   PTCLDY    64  63  94 SW6       30.21S
DOUGLAS        FAIR      65  63  93 NE7       30.17S
SAFFORD        FAIR      68  65  90 W6        30.10F
$$

AZZ020-021-025-026-031-271100-
SOUTHWEST ARIZONA

CITY           SKY/WX    TMP DP  RH WIND       PRES   REMARKS
YUMA           FAIR      86  68  54 S6        29.90R
$$

CAZ031-033-041-043-047-048-061-271100-
SOUTHERN CALIFORNIA

CITY           SKY/WX    TMP DP  RH WIND       PRES   REMARKS
DOWNTOWN L.A.  FAIR      68  62  81 CALM      29.98S
L.A. AIRPORT   FAIR      68  62  81 CALM      30.00R
SAN DIEGO      FAIR      70  64  81 CALM      30.01R
BURBANK        FAIR      70  49  47 CALM      30.00S
ONTARIO        FAIR      72  57  59 CALM      30.01S
RIVERSIDE      FAIR      70  58  65 CALM      30.01S
PALM SPRINGS   FAIR      82  52  35 S3        29.92R
EL CENTRO NAS  FAIR      84  44  24 W10       29.87S
IMPERIAL       FAIR      83  46  27 W9        29.87S
BLYTHE         FAIR      84  54  35 S5        29.89R
NEEDLES        FAIR      82  63  52 W3        29.92R
$$

NVZ020-UTZ003-271100-
SOUTHERN NEVADA-UTAH

CITY           SKY/WX    TMP DP  RH WIND       PRES   REMARKS
LAS VEGAS      FAIR      78  45  30 NE3       29.99R
SALT LAKE CITY MOCLDY    61  52  72 E5        30.17R
$$

NMZ009-TXZ055-271100-
NEW MEXICO-WEST TEXAS

CITY           SKY/WX    TMP DP  RH WIND       PRES   REMARKS
ALBUQUERQUE    CLOUDY    61  58  90 W14       30.27R
EL PASO        CLOUDY    69  66  90 NE3       30.14F
$$


........................KEY........................
SKY/WX - SKY CONDITION/WEATHER
TMP    - TEMPERATURE IN FAHRENHEIT
DP     - DEW POINT IN FAHRENHEIT
RH     - RELATIVE HUMIDITY IN PERCENT
WIND   - DIRECTION AND SPEED IN MILES PER HOUR (MPH)
VRB    - VARIABLE WIND DIRECTION
PRES   - MEAN SEA LEVEL PRESSURE IN INCHES OF MERCURY
         F - FALLING PRESSURE   R - RISING PRESSURE
         S - STEADY PRESSURE
VSB    - VISIBILITY IN MILES
HX     - HEAT INDEX IN FAHRENHEIT
WCI    - WIND CHILL INDEX IN FAHRENHEIT
TC     - TEMPERATURE IN CELSIUS WHICH IS ALSO KNOWN AS
         TEMPERATURE IN CENTIGRADE
AFB    - AIR FORCE BASE
         LUKE AFB IS LUKE AIR FORCE BASE
         DAVIS-MONTHAN IS DAVIS-MONTHAN AIR FORCE BASE
NAS    - NAVAL AIR STATION
         EL CENTRO NAS IS EL CENTRO NAVAL AIR STATION
N/A    - NOT AVAILABLE



USA.gov is the U.S. government's official web portal to all federal, state and local government web resources and services.